WetterOnline ( http://www.wetteronline.de )

Wetter aktuell München

Aktuelles Wetter: München/Stadt (535m)

6-stündlich | Neueste Meldungen
Ortszeit Temperatur Wetter
So, 19.08. 2:00 19.0° C leicht bewölkt
Sa, 18.08. 20:00 25.3° C leicht bewölkt
Sa, 18.08. 14:00 23.9° C bedeckt
Sa, 18.08. 8:00 19.6° C wolkig
Sa, 18.08. 2:00 19.6° C wolkig
Fr, 17.08. 20:00 24.8° C wolkenlos
Fr, 17.08. 14:00 27.8° C leicht bewölkt
Fr, 17.08. 8:00 17.1° C wolkenlos
Ortszeit Temperatur Wetter
So, 19.08. 2:00 19.0° C leicht bewölkt
So, 19.08. 1:40 19.3° C bedeckt
So, 19.08. 1:30 19.7° C bedeckt
So, 19.08. 1:20 19.7° C bedeckt
So, 19.08. 1:10 19.3° C bedeckt
So, 19.08. 1:00 19.2° C leicht bewölkt
So, 19.08. 0:50 19.2° C leicht bewölkt
So, 19.08. 0:30 19.7° C leicht bewölkt
So, 19.08. 0:00 20.0° C bedeckt
Sa, 18.08. 23:30 20.1° C wolkig
Sa, 18.08. 23:00 20.6° C bedeckt
Sa, 18.08. 22:30 20.7° C bedeckt
Ortszeit Relative Feuchte Sichtweite
So, 19.08. 2:00 77% 23 km
Sa, 18.08. 20:00 50% 50 km
Sa, 18.08. 14:00 56% 23 km
Sa, 18.08. 8:00 75% 21 km
Sa, 18.08. 2:00 67% 70 km
Fr, 17.08. 20:00 45% 70 km
Fr, 17.08. 14:00 35% 35 km
Fr, 17.08. 8:00 80% 14 km
Ortszeit Relative Feuchte Sichtweite
So, 19.08. 2:00 77% 23 km
So, 19.08. 1:40 76% -
So, 19.08. 1:30 75% 24 km
So, 19.08. 1:20 75% -
So, 19.08. 1:10 77% -
So, 19.08. 1:00 78% 26 km
So, 19.08. 0:50 78% -
So, 19.08. 0:30 76% 26 km
So, 19.08. 0:00 74% 28 km
Sa, 18.08. 23:30 75% 25 km
Sa, 18.08. 23:00 72% 30 km
Sa, 18.08. 22:30 72% 30 km
Ortszeit Niederschlagsmenge Niederschlagsart
So, 19.08. 2:00 0.0 l/m2 in 6 Std. -
Sa, 18.08. 20:00 0.0 l/m2 in 12 Std. -
Sa, 18.08. 14:00 0.0 l/m2 in 6 Std. -
Sa, 18.08. 8:00 0.0 l/m2 in 12 Std. -
Sa, 18.08. 2:00 0.0 l/m2 in 6 Std. -
Fr, 17.08. 20:00 0.1 l/m2 in 12 Std. -
Fr, 17.08. 14:00 0.1 l/m2 in 6 Std. Sprühregen
Fr, 17.08. 8:00 0.0 l/m2 in 12 Std. -
Ortszeit Niederschlagsmenge Niederschlagsart
So, 19.08. 2:00 0.0 l/m2 in 1 Std. -
So, 19.08. 1:40 keine Meldung -
So, 19.08. 1:30 0.0 l/m2 in 1 Std. -
So, 19.08. 1:20 keine Meldung -
So, 19.08. 1:10 keine Meldung -
So, 19.08. 1:00 0.0 l/m2 in 1 Std. -
So, 19.08. 0:50 keine Meldung -
So, 19.08. 0:30 0.0 l/m2 in 1 Std. -
So, 19.08. 0:00 0.0 l/m2 in 1 Std. -
Sa, 18.08. 23:30 0.0 l/m2 in 1 Std. -
Sa, 18.08. 23:00 0.0 l/m2 in 1 Std. -
Sa, 18.08. 22:30 0.0 l/m2 in 1 Std. -
Ortszeit Stärke Spitze Richtung
km/h Bft. km/h Grad Sektor
So, 19.08. 2:00 7 2 11 260° W
Sa, 18.08. 20:00 4 1 25 340° N
Sa, 18.08. 14:00 11 2 22 310° NW
Sa, 18.08. 8:00 11 2 20 260° W
Sa, 18.08. 2:00 11 2 25 250° W
Fr, 17.08. 20:00 7 2 22 70° O
Fr, 17.08. 14:00 6 1 20 30° NO
Fr, 17.08. 8:00 6 1 11 290° W
Ortszeit Stärke Spitze Richtung
km/h Bft. km/h Grad Sektor
So, 19.08. 2:00 7 2 11 260° W
So, 19.08. 1:40 7 2 - 260° W
So, 19.08. 1:30 7 2 11 260° W
So, 19.08. 1:20 7 2 - 260° W
So, 19.08. 1:10 9 2 - 260° W
So, 19.08. 1:00 7 2 11 260° W
So, 19.08. 0:50 7 2 - 260° W
So, 19.08. 0:30 7 2 7 260° W
So, 19.08. 0:00 7 2 11 270° W
Sa, 18.08. 23:30 7 2 11 270° W
Sa, 18.08. 23:00 7 2 11 260° W
Sa, 18.08. 22:30 7 2 11 270° W
Ortszeit Untergrenze Bedeckung Gattung
total tief tief mittel hoch
So, 19.08. 2:00 3000 m 4/8 4/8 - - -
Sa, 18.08. 20:00 2100 m 2/8 - - - -
Sa, 18.08. 14:00 4200 m 8/8 8/8 - - -
Sa, 18.08. 8:00 3600 m 8/8 8/8 - - -
Sa, 18.08. 2:00 9000 m 8/8 0/8 - - -
Fr, 17.08. 20:00 10500 m 0/8 0/8 - - -
Fr, 17.08. 14:00 9000 m 5/8 0/8 - - -
Fr, 17.08. 8:00 - 0/8 0/8 - - -
Ortszeit Bedeckungsgrad in Achtel und Wolkenuntergrenze
So, 19.08. 2:00 4(3000m)
So, 19.08. 1:40 9 9 9
So, 19.08. 1:30 9 9 9
So, 19.08. 1:20 9 9 9
So, 19.08. 1:10 9 9 9
So, 19.08. 1:00 4(3000m)
So, 19.08. 0:50 4(3000m)
So, 19.08. 0:30 3(2700m) 4(3300m) 9
So, 19.08. 0:00 9 9 9
Sa, 18.08. 23:30 2(2400m) 3(3000m) 9
Sa, 18.08. 23:00 9 9 9
Sa, 18.08. 22:30 9 9 9
Ortszeit Luftdruck NN (hPa) Tendenz (hPa in 3 Std.)
So, 19.08. 2:00 1021 + 0,2
Sa, 18.08. 20:00 1018 0,0
Sa, 18.08. 14:00 1019 + 0,1
Sa, 18.08. 8:00 1019 + 0,9
Sa, 18.08. 2:00 1018 + 1,6
Fr, 17.08. 20:00 1014 + 0,3
Fr, 17.08. 14:00 1014 - 0,2
Fr, 17.08. 8:00 1015 + 0,8
Ortszeit Luftdruck NN (hPa) Tendenz (hPa in 3 Std.)
So, 19.08. 2:00 1021 + 0,2
So, 19.08. 1:40 1021 keine Meldung
So, 19.08. 1:30 1021 + 0,4
So, 19.08. 1:20 1021 keine Meldung
So, 19.08. 1:10 1021 keine Meldung
So, 19.08. 1:00 1021 + 0,4
So, 19.08. 0:50 1021 keine Meldung
So, 19.08. 0:30 1021 + 0,4
So, 19.08. 0:00 1021 + 0,7
Sa, 18.08. 23:30 1021 + 1,1
Sa, 18.08. 23:00 1020 + 1,1
Sa, 18.08. 22:30 1020 + 1,3
Ortszeit Schneehöhe (cm)
So, 19.08. 2:00 -
Sa, 18.08. 20:00 -
Sa, 18.08. 14:00 -
Sa, 18.08. 8:00 -
Sa, 18.08. 2:00 -
Fr, 17.08. 20:00 -
Fr, 17.08. 14:00 -
Fr, 17.08. 8:00 -
Ortszeit Schneehöhe (cm)
So, 19.08. 2:00 -
So, 19.08. 1:40 -
So, 19.08. 1:30 -
So, 19.08. 1:20 -
So, 19.08. 1:10 -
So, 19.08. 1:00 -
So, 19.08. 0:50 -
So, 19.08. 0:30 -
So, 19.08. 0:00 -
Sa, 18.08. 23:30 -
Sa, 18.08. 23:00 -
Sa, 18.08. 22:30 -
Link zu dieser Seite / Seite empfehlen

Das Wetter in ...